Flag for Brazil Weather past 2 weeks in Palmas, Tocantins, Brazil

Now
75 °F

Clear.


Feels Like: 74 °F
Forecast: 75 / 89 °F
Wind: 7 mph from North

Location: Maraba Airport

Current Time: Apr 18, 2015 at 7:08:04 AM

Latest Report: Apr 18, 2015 at 6:00 AM


Visibility: 10 mi

Pressure: 29.89 "Hg

Humidity: 94%

Dew point: 73 °F

Location of PalmasLocation

Historic Weather in Palmas — Graph

°F

Palmas temperature yesterday

Maximum temperature yesterday: 88 °F (at 1:00 PM)
Minimum temperature yesterday: 75 °F (at 4:00 AM)
Average temperature yesterday: 80 °F

Past Weeks' High & Low Weather Summary

 TemperatureHumidityPressure
High91 °F (Apr 3, 4:00 PM)100% (Apr 3, 5:00 AM)30.01 "Hg (Apr 3, 5:00 AM)
Low73 °F (Apr 5, 7:00 AM)59% (Apr 6, 3:00 PM)29.74 "Hg (Apr 4, 4:00 PM)
Average80 °F86%29.88 "Hg
* Reported Apr 3 5:00 AM — Apr 18 5:00 AM, Palmas, Weather by CustomWeather, © 2015

Note: Actual official high and low records may vary slightly from our data, if they occured in-between our weather recording intervals... More about our weather records

Advertising

Palmas weather history for previous 24 hours

 ConditionsComfort  
Time TempWeatherWind HumidityBarometerVisibility
5:00 AM
Sat, Apr 18
77 °FClear.5 mph94%29.83 "Hg10 mi
4:00 AM77 °FClear.5 mph94%29.83 "Hg10 mi
3:00 AM77 °FClear.2 mph100%29.83 "Hg10 mi
2:00 AM77 °FClear.2 mph94%29.86 "Hg10 mi
1:00 AM79 °FClear.1 mph94%29.86 "Hg10 mi
12:00 AM79 °FClear.5 mph94%29.89 "Hg10 mi
11:00 PM
Fri, Apr 17
77 °FClear.3 mph94%29.89 "Hg10 mi
10:00 PM79 °FThundershowers. Passing clouds.5 mph89%29.89 "HgN/A
9:00 PM79 °FThundershowers. Passing clouds.5 mph89%29.86 "HgN/A
8:00 PM77 °FThundershowers. Passing clouds.2 mph89%29.83 "HgN/A
7:00 PM77 °FThundershowers. Passing clouds.1 mph94%29.80 "HgN/A
6:00 PM79 °FPassing clouds.3 mph89%29.77 "HgN/A
5:00 PM82 °FPassing clouds.3 mph79%29.80 "HgN/A
4:00 PM86 °FPassing clouds.3 mph70%29.80 "HgN/A
3:00 PM82 °FLight rain. Partly sunny.6 mph74%29.83 "HgN/A
2:00 PM88 °FPartly sunny.5 mph66%29.86 "HgN/A
1:00 PM88 °FPartly sunny.5 mph70%29.89 "HgN/A
12:00 PM86 °FScattered clouds.3 mph70%29.92 "HgN/A
11:00 AM82 °FPartly sunny.2 mph79%29.95 "HgN/A
10:00 AM82 °FPartly sunny.5 mph84%29.95 "HgN/A
9:00 AM81 °FPartly sunny.2 mph84%29.95 "HgN/A
8:00 AM79 °FPassing clouds.1 mph89%29.92 "HgN/A
7:00 AM75 °FBroken clouds.1 mph100%29.92 "HgN/A
Weather by CustomWeather, © 2015

See weather overviewHow to use our weather pages